Location: Ku?niki
(51.4449°N, 17.8974°E)
Time: 18:08:40
(UTC+00:00)

SJ-6B - Pass Details

Date: 18 September 2020
Orbit: 511 x 580 km, 97.6° (Epoch: 22 October)

Event Time Altitude Azimuth Distance (km) Brightness Sun altitude
Exits shadow 17:45:41 - 134° (SE) 1,903 5.0 -8.6°
Reaches altitude 10° 17:46:07 10° 132° (SE) 1,734 4.8 -8.7°
Maximum altitude 17:49:29 33° 67° (ENE) 885 3.5 -9.2°
Drops below altitude 10° 17:52:53 10° 3° (N) 1,759 5.6 -9.7°
Sets 17:55:08 0° 354° (N) 2,660 6.6 -10.0°
